x

Fripp Nearshore (frp 2) (41033) Weather Station

5:08am - Wed 22nd Feb 2017 All times are EST. -5 hours from GMT.

  • Wind
    11mph, 16mph gusts
  • Sea Temp 60°f
  • Air Temp 63°f
  • Sea Pressure 1013mb
  • Fripp Nearshore (frp 2)
  • Fripp Nearshore (frp 2)

More Historic Weather Station data

Upgrade to MSW Pro to gain access to the past 30 days of data for over 8000 Wavebouys and Weather Stations around the globe.

Join Pro

Comparision Forecast

View Surf forecast
   
Wed 02/22 5:08am 11 16 mph 1013mb 60f 63f
4:08am 9 13 mph 1012.9mb 60f 63f
3:08am 13 16 mph 1013.5mb 60f 64f
2:08am 13 16 mph 1014mb 60f 63f
1:08am 11 13 mph 1014.6mb 60f 63f
12:08am 11 13 mph 1015.2mb 61f 63f
Tue 02/21 11:08pm 11 13 mph 1015.7mb 61f 64f
10:08pm 11 13 mph 1016.2mb 61f 63f
9:08pm 11 13 mph 1016.8mb 61f 63f
8:08pm 9 11 mph 1017mb 60f 62f
7:08pm 9 11 mph 1017.3mb 60f 62f
6:08pm 9 11 mph 1017.5mb 60f 62f
5:08pm 9 13 mph 1017.4mb 61f 62f
4:08pm 9 13 mph 1017.4mb 61f 62f
3:08pm 11 13 mph 1017.4mb 61f 62f
2:08pm 11 13 mph 1017.9mb 61f 62f
1:08pm 7 11 mph 1019mb 61f 62f
12:08pm 9 13 mph 1019.9mb 60f 63f
11:08am 13 16 mph 1020.4mb 61f 63f
10:08am 11 16 mph 1021.2mb 61f 63f
9:08am 9 13 mph 1021.3mb 60f 62f
8:08am 9 11 mph 1021.4mb 60f 62f
7:08am 11 16 mph 1021.2mb 60f 62f
6:08am 9 13 mph 1021mb 60f 61f
5:08am 7 9 mph 1020.6mb 60f 61f
4:08am 9 11 mph 1020.4mb 60f 61f
3:08am 9 11 mph 1020.4mb 60f 61f
2:08am 7 9 mph 1020.7mb 60f 61f
1:08am 7 9 mph 1020.6mb 61f 61f
12:08am 4 7 mph 1020.8mb 61f 61f
Mon 02/20 11:08pm 7
mph
1021.1mb 61f 61f
10:08pm 7 9 mph 1021.4mb 61f 61f
9:08pm 7
mph
1021.5mb 61f 61f
8:08pm 7
mph
1021.3mb 61f 61f
7:08pm 7 9 mph 1021.2mb 60f 61f
6:08pm 4 7 mph 1021.2mb 61f 61f
5:08pm 4 7 mph 1021mb 61f 61f
4:08pm 7
mph
1021mb 61f 61f
3:08pm 4 7 mph 1021.1mb 61f 61f
2:08pm 7 9 mph 1021.1mb 61f 60f
1:08pm 9 11 mph 1021.5mb 60f 60f
12:08pm 11 13 mph 1022.2mb 60f 60f
11:08am 9 13 mph 1022.6mb 60f 60f
10:08am 11 13 mph 1022.3mb 60f 60f
9:08am 9 11 mph 1022.1mb 59f 60f
8:08am 11 13 mph 1021.2mb 59f 60f
7:08am 11 13 mph 1020.6mb 59f 59f
6:08am 9 11 mph 1019.9mb 60f 59f
5:08am 4 7 mph 1019.3mb 60f 59f
4:08am 2 4 mph 1019.2mb 60f 59f
2:08am 2 4 mph 1019.4mb 60f 60f
1:08am 2 4 mph 1019.3mb 60f 60f
12:08am 2
mph
1018.6mb 60f 60f
Sun 02/19 11:08pm 2
mph
1018.4mb 59f 60f
10:08pm 2 4 mph 1018.6mb 60f 61f
9:08pm 4
mph
1018.4mb 60f 61f
8:08pm 4 7 mph 1017.7mb 60f 61f
7:08pm 4 7 mph 1017mb 60f 62f
6:08pm 7 9 mph 1016.2mb 61f 63f
5:08pm 2 7 mph 1015.8mb 60f 68f
4:08pm 9 16 mph 1015.5mb 60f 69f
3:08pm 7 9 mph 1015.5mb 61f 67f
2:08pm 9 11 mph 1015.5mb 60f 67f
1:08pm 7 9 mph 1015.8mb 60f 65f
12:08pm 4 9 mph 1016.6mb 60f 63f
11:08am 9 11 mph 1017.2mb 59f 61f
10:08am 9 11 mph 1017.4mb 59f 59f
9:08am 7 9 mph 1017.2mb 59f 58f
8:08am 7 9 mph 1016.8mb 59f 58f
7:08am 7 11 mph 1015.9mb 59f 58f
6:08am 4 7 mph 1015.1mb 59f 57f
5:08am 7 9 mph 1014.8mb 59f 57f
4:08am 7 11 mph 1014.3mb 59f 57f
3:08am 9 11 mph 1013.8mb 59f 57f
2:08am 11 13 mph 1014mb 59f 58f
1:08am 7
mph
1014.2mb 59f 59f